Погода в Заводском

Украина / Тернопольская область     48°59′57″N   25°51′15″E
темп.,
°C
ветер,
м/с
пор.,
м/с
влажн.,
%
обл.,
%
осадки,
мм/ч
давл.,
гПа
погр.,
м
21 апреля, ср
ср2100:00+6зсз238284 0.1 101239
03:00+5зсз348734 0.1 101371
06:00+4зсз369134 0.0 1013112
09:00+8зсз357563 0.0 1014371
12:00+12зсз455771 0.5 10141393
15:00+14зсз464793 1.4 10131879
18:00+14з355151 0.2 10131467
21:00+9ююз357494 0.8 101480
22 апреля, чт
чт2200:00+8юз367678 0.1 101598
03:00+7зюз3375100 0.1 101551
06:00+8ююз367376 0.0 1015127
09:00+11юз6106841 0.0 1016538
12:00+15юз685329 0.3 10151627
15:00+15з8115290 0.9 10151855
18:00+14зсз365541 0.2 10131176
21:00+9сз9108999 1.7 1016520
23 апреля, пт
пт2300:00+5сз5888100 3.4 1018464
03:00+5зсз4787100 3.4 1018414
06:00+4зсз3887100 0.0 1018401
09:00+4сз5777100 0.0 1019510
12:00+8сз575396 0.1 10191970
15:00+9зсз794497 0.3 10192130
18:00+9зсз6114548 0.0 10182447
21:00+5зсз226444 0.0 101918
24 апреля, сб
сб2400:00+3зсз51191100 0.4 1020585
03:00+2з7138350 0.4 1020836
06:000зсз614835 0.0 1021765
09:00+3сз812605 0.0 10231356
12:00+5зсз71046100 0.0 10232246
15:00+7зсз81141100 0.1 10222664
18:00+7сз711467 0.1 10222225
21:00+4зсз36605 0.1 1023106
25 апреля, вс
вс2500:00+2зюз326813 0.0 102333
03:00+3сз236698 0.0 102272
06:00+1зсз2491100 0.3 1022228
09:00+2сз5890100 0.3 1023590
12:00+5сз786395 0.1 10231492
15:00+8сз71041100 0.1 10222319
18:00+7сз794667 0.0 10222000
21:00+3сз366654 0.0 1023120